Location: Baerenthal
(48.9783°N, 7.5174°E)
Time: 14:31:37
(UTC+00:00)

Daily predictions for brighter satellites

Satellite Brightness Start Highest point End
(mag) Time Altitude Azimuth Time Altitude Azimuth Time Altitude Azimuth
GEOS 3 Rocket 3.8 16:54:27 10° ESE 16:59:40 58° NE 17:04:58 10° NW
CORIOLIS 4.2 16:54:38 10° SSE 17:00:00 90° NW 17:05:23 10° NNW
Genesis I 4.0 16:56:29 10° WSW 17:00:13 50° NW 17:03:59 10° NNE
Cosmos 332 Rocket 3.9 16:56:46 10° S 17:01:35 59° ESE 17:06:25 10° NNE
SL-27 R/B 2.9 17:00:41 10° NNW 17:04:16 69° WSW 17:07:45 10° SSE
Aureole 1 Rocket 2.0 17:02:39 10° NNW 17:05:46 80° ENE 17:08:44 10° SSE
Cosmos 1602 Rocket 3.6 17:05:09 10° N 17:09:39 70° E 17:14:06 10° SSE
CZ-4B R/B 4.0 17:04:13 10° S 17:09:46 60° WSW 17:15:18 10° NNW
Cosmos 1626 Rocket 3.6 17:05:26 10° N 17:09:55 89° WNW 17:14:21 10° S
ADEOS Rocket 3.5 17:04:06 10° N 17:10:05 70° WNW 17:16:44 10° SSW
Meteor 1-16 Rocket 4.3 17:05:28 10° S 17:11:03 57° E 17:16:30 10° NNE
BREEZE-M R/B 3.2 17:09:12 10° WSW 17:12:32 69° SSE 17:19:02 10° ENE
USA 229 DEB 4.1 17:05:29 10° NW 17:12:45 81° SW 17:20:26 10° SSE
USA 229 4.1 17:05:35 10° NW 17:12:52 81° SW 17:20:32 10° SE
Feng Yun 1-1 Rocket 4.4 17:07:43 10° SSE 17:13:34 74° ENE 17:19:30 10° NNW
Cosmos 2228 4.0 17:11:27 10° SE 17:14:50 24° E 17:18:14 10° NE
Cosmos 1455 Rocket 4.2 17:10:43 10° SSW 17:14:53 47° WNW 17:19:06 10° N
Cosmos 1939 Rocket 2.9 17:13:43 10° SSE 17:17:38 54° ENE 17:21:32 10° N
Cosmos 1356 Rocket 3.5 17:14:20 10° S 17:18:29 60° E 17:22:44 10° NNE
ERS-2 2.3 17:14:52 10° NNE 17:18:32 78° WNW 17:22:10 10° SSW
Cosmos 1420 Rocket 4.0 17:13:33 10° SSW 17:18:48 74° ESE 17:24:03 10° NNE
CZ-4C R/B 4.0 17:15:44 10° WNW 17:20:25 25° NNW 17:25:51 10° NE
Cosmos 1703 3.2 17:17:37 10° N 17:21:33 67° E 17:25:28 10° SSE
Meteor 1-11 4.4 17:16:40 10° N 17:22:12 50° ENE 17:27:46 10° SSE
CZ-4B R/B 1.5 17:20:24 10° N 17:23:44 76° WNW 17:26:58 10° SSW
Cosmos 1908 3.2 17:21:02 10° S 17:24:47 57° E 17:28:35 10° NNE
NOSS 3-1 (A) 4.2 17:18:20 10° NW 17:25:48 83° SW 17:34:27 10° SE
CZ-4 R/B 1.7 17:23:19 10° SE 17:27:00 39° ENE 17:30:40 10° N
Cosmos 1655 Rocket 4.2 17:20:53 10° N 17:27:18 82° W 17:33:42 10° S
Cosmos 1943 Rocket 3.3 17:22:12 10° SW 17:27:29 44° NW 17:32:47 10° NNE
CZ-2D R/B 3.4 17:24:08 10° SSE 17:27:51 51° ENE 17:31:34 10° N
Okean O Rocket 3.2 17:23:56 10° SSW 17:28:03 39° W 17:32:10 10° NNW
Cosmos 2279 Rocket 4.5 17:21:54 10° SSW 17:28:06 66° WNW 17:34:21 10° N
Cosmos 2227 Rocket 3.6 17:24:00 10° N 17:28:13 21° NE 17:31:21 14° E
IRS-1C Rocket 4.0 17:23:35 10° SSE 17:28:50 78° ENE 17:34:08 10° NNW
Cosmos 1741 Rocket 4.0 17:26:12 10° NNW 17:31:28 70° ENE 17:36:41 10° SSE
USA 305 3.6 17:30:57 10° W 17:35:08 47° NNW 17:38:31 15° ENE
ERBS 2.3 17:32:17 10° WSW 17:35:37 79° NW 17:38:17 15° NE
Cosmos 2263 4.5 17:30:08 10° SW 17:35:55 74° WNW 17:41:43 10° NNE
ATLAS 5 CENTAUR R/B 2.2 17:32:53 10° WSW 17:36:57 54° NW 17:41:37 10° NE
COSMO-SKYMED 1 2.5 17:33:13 10° NNE 17:37:34 65° ESE 17:41:52 10° S
ATLAS 2AS CENTAUR R/B 4.3 17:34:25 10° NW 17:40:53 27° N 17:46:53 11° NE
Lacrosse 5 2.1 17:36:01 10° WSW 17:41:04 70° NNW 17:45:38 13° NE
USA 306 3.6 17:36:59 10° W 17:41:08 46° N 17:44:16 16° ENE
NOSS 2-1 (C) 3.4 17:38:39 10° SW 17:41:57 59° NW 17:45:34 10° NE
USA 276 3.4 17:39:34 10° W 17:42:33 36° SSW 17:45:14 12° SE
Cosmos 1892 4.4 17:40:48 10° NNE 17:42:51 16° ENE 17:42:51 16° ENE
H-2A R/B 2.5 17:39:50 10° SE 17:44:50 42° ENE 17:49:56 10° N
USA 215 3.4 17:40:04 15° E 17:45:29 61° NNE 17:51:55 10° NW
SAR-Lupe-4 3.9 17:42:17 10° N 17:45:51 69° WNW 17:49:25 10° SSW
NOSS 2-1 (D) 3.6 17:43:55 10° WSW 17:47:10 53° NW 17:50:43 10° NE
ARGOS 3.8 17:42:40 10° SE 17:47:30 35° ENE 17:52:22 10° N
Okean-O 2.5 17:44:08 10° SSE 17:48:33 76° ENE 17:53:00 10° N
Cosmos 1328 3.9 17:44:58 10° NNW 17:48:54 77° W 17:52:51 10° S
COSMOS 2487 2.3 17:46:52 10° NNW 17:50:21 84° ENE 17:53:46 10° SSE
SeaSat 1 2.5 17:46:18 10° SE 17:51:09 60° NE 17:56:02 10° NNW
Cosmos 1850 Rocket 4.1 17:45:56 10° NNW 17:51:14 80° WSW 17:56:33 10° SSE
CSL-04 Rocket 3.9 17:48:10 10° SE 17:53:31 51° ENE 17:58:53 10° N
Cosmos 1825 Rocket 3.5 17:53:41 10° N 17:58:12 88° E 18:02:38 10° S
Cosmos 1452 Rocket 3.6 17:54:01 10° SSW 17:59:17 82° WNW 18:04:36 10° NNE
HJ-1C 3.8 17:58:45 33° ESE 17:59:31 38° ENE 18:02:41 10° N
Cosmos 1300 2.9 17:56:05 10° SSE 17:59:44 47° E 18:03:26 10° NNE
YAOGAN 1 2.4 17:55:27 10° SSE 17:59:46 76° ENE 18:04:07 10° N
Nadezhda 2 Rocket 4.5 17:54:06 10° N 18:00:27 67° ENE 18:06:49 10° SSE
Cosmos 304 Rocket 4.5 17:59:43 10° SW 18:04:24 54° WNW 18:09:07 10° NNE
Cosmos 1400 Rocket 4.0 18:03:12 10° SSE 18:12:02 - NNE 18:05:30 25° SE
Cosmos 1656 Rocket 4.3 18:01:42 10° SW 18:07:09 56° WNW 18:12:44 10° NNE
Meteor 2-21 Rocket 4.4 18:01:02 10° N 18:07:16 89° E 18:13:26 10° S
CZ-2C R/B 3.3 18:02:01 10° SSE 18:07:51 83° ENE 18:13:37 10° NNW
Cosmos 1244 Rocket 4.4 18:03:07 10° N 18:09:17 69° E 18:15:28 10° SSE
Cosmos 2297 Rocket 2.7 18:04:42 10° NNW 18:10:02 40° NE 18:12:08 29° E
Cosmos 1689 Rocket 3.4 18:07:59 10° N 18:10:46 39° WNW 18:13:28 10° SW
Cosmos 2369 Rocket 3.8 18:05:52 10° WSW 18:11:01 35° NW 18:16:14 10° NNE
SJ-11-01 4.2 18:08:19 10° SSE 18:12:57 68° ENE 18:17:36 10° N
BREEZE-M R/B 3.4 18:05:12 10° W 18:13:19 86° N 18:14:14 45° E
Cosmos 1758 Rocket 4.5 18:09:05 10° NNW 18:13:24 50° W 18:17:39 10° S
In-Cosmos 22 Rocket 4.2 18:10:47 10° N 18:16:00 53° ENE 18:19:42 19° SE
Cosmos 1726 Rocket 3.4 18:13:27 10° S 18:17:46 78° E 18:22:09 10° NNE
Meteor 2-8 Rocket 4.4 18:12:20 10° S 18:18:14 56° E 18:24:13 10° NNE
Cosmos 1818 4.0 18:14:10 10° SW 18:19:32 61° NW 18:24:45 11° NE
USA 307 3.7 18:17:15 10° WNW 18:21:21 42° N 18:22:42 32° NE
Helios 1A Rocket 4.4 18:20:38 10° SSW 18:24:31 39° W 18:28:24 10° NNW
CSL-04 Debris 4.1 18:19:32 10° SSE 18:24:58 89° W 18:30:28 10° NNW
USA 308 3.7 18:21:52 10° WNW 18:25:58 41° N 18:27:06 34° NE
Ariane Rocket 3.5 18:26:41 38° ENE 18:27:01 38° ENE 18:31:44 10° N
Cosmos 2219 3.3 18:23:24 10° NNW 18:29:04 55° NE 18:30:54 39° ESE
Timation 2 Rocket 4.0 18:23:10 10° NNW 18:29:43 81° ENE 18:34:14 23° SE
USA 116 4.3 18:24:54 10° NNE 18:30:01 86° ESE 18:35:22 10° SSW
Cosmos 1606 Rocket 4.0 18:26:15 10° SSW 18:30:33 63° WNW 18:34:56 10° N
FALCON 9 DEB 3.5 18:27:27 10° W 18:30:49 54° NNW 18:31:01 53° N
Geosat 4.2 18:26:31 10° NNE 18:31:32 70° WNW 18:36:31 10° SW
SL-4 R/B 1.7 18:29:17 10° WSW 18:32:54 77° NNW 18:33:10 71° NNE
SL-08 RB Rocket 3.7 18:33:52 54° E 18:34:01 54° ENE 18:38:24 10° N
Cosmos 1340 2.7 18:38:16 10° N 18:41:40 70° N 18:41:40 70° N
SL-08 ROCKET BODY 4.3 18:36:19 10° N 18:42:23 72° E 18:46:19 23° SSE
Cosmos 2082 4.4 18:37:29 10° NNW 18:42:44 35° NE 18:42:46 35° NE
Cosmos 1346 Rocket 4.3 18:39:19 10° N 18:41:12 25° NNE 18:41:12 25° NNE
Cosmos 2058 4.1 18:42:14 10° N 18:44:32 30° NNE 18:44:32 30° NNE
S3M 3.9 18:40:25 10° SSE 18:46:20 56° E 18:52:19 10° NNE
CRYOSAT 2 4.2 18:42:58 10° N 18:47:52 82° E 18:52:43 10° S
Cosmos 2058 Rocket 3.1 18:43:35 10° SSW 18:48:03 82° WNW 18:52:34 10° N
Resurs 01 Rocket 4.0 18:54:26 12° NNE 18:54:26 12° NNE 18:54:49 10° NNE
Cosmos 1331 Rocket 4.1 18:46:40 10° SSW 18:51:50 74° WNW 18:57:01 10° NNE
Meteor 2-15 4.3 18:48:49 10° S 18:54:54 69° E 19:01:01 10° NNE
Cosmos 292 Rocket 3.7 18:52:59 10° SSW 18:57:46 84° WNW 18:59:06 49° NNE
MOS 1 Rocket 3.6 18:54:07 10° N 18:58:33 64° WNW 19:03:11 10° SSW
Cosmos 1417 Rocket 4.4 18:54:09 10° S 19:00:22 86° E 19:06:43 10° N
CZ-4 R/B 3.9 18:59:13 10° SW 19:02:11 20° W 19:05:08 10° NW
Aureole 3 Rocket 3.7 19:04:10 27° SW 19:05:49 48° WNW 19:10:14 10° N
MetOp-A 4.1 19:06:21 68° NE 19:06:21 68° NE 19:11:22 10° N
CZ-4C R/B 4.1 19:05:54 10° NW 19:11:09 25° NNE 19:12:50 23° NE
Cosmos 2227 Rocket 2.0 19:07:26 10° NNW 19:13:08 86° ENE 19:13:11 85° E
Cosmos 1486 Rocket 4.0 19:07:55 10° NNW 19:13:00 80° N 19:13:00 80° N
USA 305 4.1 19:11:32 10° WNW 19:14:39 38° NNW 19:14:39 38° NNW
Cosmos 1302 Rocket 4.2 19:11:46 10° SSW 19:16:03 60° SSW 19:16:03 60° SSW
Cosmos 1892 4.4 19:15:35 10° NNW 19:17:51 30° NW 19:17:51 30° NW
Cosmos 1553 Rocket 4.4 19:13:43 10° SSW 19:20:03 65° WNW 19:26:22 10° N
USA 306 4.3 19:17:34 10° WNW 19:20:24 35° NW 19:20:24 35° NW
ATLAS 5 CENTAUR R/B 3.9 19:19:27 10° WNW 19:22:42 19° NNW 19:24:08 17° N
H-2A R/B 3.7 19:19:31 10° SSW 19:24:20 34° W 19:29:16 10° NNW
Lacrosse 5 3.0 19:20:04 10° WNW 19:24:42 35° N 19:24:49 35° N
Cosmos 968 Rocket 3.8 19:20:09 10° NNW 19:24:40 65° NW 19:24:40 65° NW
ARGOS 4.3 19:23:47 16° SSW 19:27:40 41° W 19:32:49 10° NNW
USA 215 3.4 19:27:26 55° S 19:28:31 62° SW 19:35:01 10° WNW
SeaSat 1 4.5 19:25:37 13° SSW 19:28:59 24° WSW 19:32:58 10° NW
CZ-2C R/B 3.7 19:25:51 10° NNE 19:29:06 36° N 19:29:06 36° N
Cosmos 2263 Rocket 3.8 19:26:45 10° NNW 19:29:39 23° NNE 19:29:39 23° NNE
ATLAS 2AS CENTAUR R/B 3.6 19:26:54 10° NW 19:34:02 39° NNE 19:34:19 39° NNE
BREEZE-M R/B 4.1 19:30:30 10° W 19:35:30 87° N 19:35:53 82° E
Cosmos 2297 Rocket 3.2 19:48:50 10° NW 19:53:58 41° WSW 19:53:58 41° WSW
CZ-4C R/B 4.2 20:54:35 10° NW 20:58:00 31° NNW 20:58:00 31° NNW
ATLAS 2AS CENTAUR R/B 4.4 21:18:12 10° NW 21:21:44 30° NW 21:21:44 30° NW
